Year,Month,Day,Hour,Minute,Value (Times are PST for barometer in hPa)
2015,12,10,00,00,997.19
2015,12,10,00,01,997.10
2015,12,10,00,02,997.03
2015,12,10,00,03,996.96
2015,12,10,00,04,996.90
2015,12,10,00,05,996.85
2015,12,10,00,06,996.85
2015,12,10,00,07,996.82
2015,12,10,00,08,996.82
2015,12,10,00,09,996.78
2015,12,10,00,10,996.73
2015,12,10,00,11,996.72
2015,12,10,00,12,996.68
2015,12,10,00,13,996.72
2015,12,10,00,14,996.66
2015,12,10,00,15,996.61
2015,12,10,00,16,996.56
2015,12,10,00,17,996.49
2015,12,10,00,18,996.45
2015,12,10,00,19,996.41
2015,12,10,00,20,996.41
2015,12,10,00,21,996.35
2015,12,10,00,22,996.34
2015,12,10,00,23,996.31
2015,12,10,00,24,996.22
2015,12,10,00,25,996.17
2015,12,10,00,26,996.17
2015,12,10,00,27,996.05
2015,12,10,00,28,996.04
2015,12,10,00,29,995.98
2015,12,10,00,30,995.88
2015,12,10,00,31,995.81
2015,12,10,00,32,995.77
2015,12,10,00,33,995.64
2015,12,10,00,34,995.54
2015,12,10,00,35,995.50
2015,12,10,00,36,995.37
2015,12,10,00,37,995.30
2015,12,10,00,38,995.29
2015,12,10,00,39,995.26
2015,12,10,00,40,995.23
2015,12,10,00,41,995.13
2015,12,10,00,42,995.12
2015,12,10,00,43,995.09
2015,12,10,00,44,995.03
2015,12,10,00,45,995.06
2015,12,10,00,46,995.02
2015,12,10,00,47,994.99
2015,12,10,00,48,994.93
2015,12,10,00,49,994.86
2015,12,10,00,50,994.89
2015,12,10,00,51,994.89
2015,12,10,00,52,994.85
2015,12,10,00,53,994.76
2015,12,10,00,54,994.69
2015,12,10,00,55,994.54
2015,12,10,00,56,994.40
2015,12,10,00,57,994.35
2015,12,10,00,58,994.25
2015,12,10,00,59,994.21
2015,12,10,01,00,994.11
2015,12,10,01,01,994.07
2015,12,10,01,02,994.04
2015,12,10,01,03,994.04
2015,12,10,01,04,994.01
2015,12,10,01,05,993.92
2015,12,10,01,06,993.87
2015,12,10,01,07,993.84
2015,12,10,01,08,993.78
2015,12,10,01,09,993.67
2015,12,10,01,10,993.54
2015,12,10,01,11,993.50
2015,12,10,01,12,993.41
2015,12,10,01,13,993.34
2015,12,10,01,14,993.27
2015,12,10,01,15,993.26
2015,12,10,01,16,993.17
2015,12,10,01,17,993.04
2015,12,10,01,18,992.94
2015,12,10,01,19,992.89
2015,12,10,01,20,992.76
2015,12,10,01,21,992.72
2015,12,10,01,22,992.63
2015,12,10,01,23,992.55
2015,12,10,01,24,992.58
2015,12,10,01,25,992.55
2015,12,10,01,26,992.52
2015,12,10,01,27,992.57
2015,12,10,01,28,992.46
2015,12,10,01,29,992.42
2015,12,10,01,30,992.36
2015,12,10,01,31,992.31
2015,12,10,01,32,992.31
2015,12,10,01,33,992.28
2015,12,10,01,34,992.28
2015,12,10,01,35,992.28
2015,12,10,01,36,992.19
2015,12,10,01,37,992.15
2015,12,10,01,38,992.09
2015,12,10,01,39,991.96
2015,12,10,01,40,991.83
2015,12,10,01,41,991.75
2015,12,10,01,42,991.65
2015,12,10,01,43,991.55
2015,12,10,01,44,991.47
2015,12,10,01,45,991.34
2015,12,10,01,46,991.27
2015,12,10,01,47,991.14
2015,12,10,01,48,991.07
2015,12,10,01,49,990.97
2015,12,10,01,50,990.90
2015,12,10,01,51,990.89
2015,12,10,01,52,990.92
2015,12,10,01,53,990.93
2015,12,10,01,54,990.84
2015,12,10,01,55,990.79
2015,12,10,01,56,990.76
2015,12,10,01,57,990.76
2015,12,10,01,58,990.73
2015,12,10,01,59,990.66
2015,12,10,02,00,990.65
2015,12,10,02,01,990.68
2015,12,10,02,02,990.65
2015,12,10,02,03,990.65
2015,12,10,02,04,990.56
2015,12,10,02,05,990.52
2015,12,10,02,06,990.49
2015,12,10,02,07,990.40
2015,12,10,02,08,990.38
2015,12,10,02,09,990.42
2015,12,10,02,10,990.33
2015,12,10,02,11,990.28
2015,12,10,02,12,990.32
2015,12,10,02,13,990.32
2015,12,10,02,14,990.26
2015,12,10,02,15,990.31
2015,12,10,02,16,990.17
2015,12,10,02,17,990.11
2015,12,10,02,18,990.05
2015,12,10,02,19,990.04
2015,12,10,02,20,990.01
2015,12,10,02,21,989.95
2015,12,10,02,22,989.84
2015,12,10,02,23,989.78
2015,12,10,02,24,989.68
2015,12,10,02,25,989.64
2015,12,10,02,26,989.60
2015,12,10,02,27,989.55
2015,12,10,02,28,989.50
2015,12,10,02,29,989.47
2015,12,10,02,30,989.34
2015,12,10,02,31,989.30
2015,12,10,02,32,989.30
2015,12,10,02,33,989.27
2015,12,10,02,34,989.20
2015,12,10,02,35,989.26
2015,12,10,02,36,989.23
2015,12,10,02,37,989.20
2015,12,10,02,38,989.17
2015,12,10,02,39,989.13
2015,12,10,02,40,989.04
2015,12,10,02,41,988.97
2015,12,10,02,42,989.00
2015,12,10,02,43,988.96
2015,12,10,02,44,988.90
2015,12,10,02,45,988.89
2015,12,10,02,46,988.80
2015,12,10,02,47,988.79
2015,12,10,02,48,988.76
2015,12,10,02,49,988.67
2015,12,10,02,50,988.56
2015,12,10,02,51,988.52
2015,12,10,02,52,988.49
2015,12,10,02,53,988.45
2015,12,10,02,54,988.45
2015,12,10,02,55,988.42
2015,12,10,02,56,988.36
2015,12,10,02,57,988.38
2015,12,10,02,58,988.35
2015,12,10,02,59,988.41
2015,12,10,03,00,988.36
2015,12,10,03,01,988.35
2015,12,10,03,02,988.35
2015,12,10,03,03,988.29
2015,12,10,03,04,988.23
2015,12,10,03,05,988.09
2015,12,10,03,06,987.99
2015,12,10,03,07,987.95
2015,12,10,03,08,987.91
2015,12,10,03,09,987.88
2015,12,10,03,10,987.82
2015,12,10,03,11,987.78
2015,12,10,03,12,987.68
2015,12,10,03,13,987.64
2015,12,10,03,14,987.67
2015,12,10,03,15,987.62
2015,12,10,03,16,987.64
2015,12,10,03,17,987.55
2015,12,10,03,18,987.39
2015,12,10,03,19,987.46
2015,12,10,03,20,987.38
2015,12,10,03,21,987.34
2015,12,10,03,22,987.30
2015,12,10,03,23,987.34
2015,12,10,03,24,987.28
2015,12,10,03,25,987.30
2015,12,10,03,26,987.27
2015,12,10,03,27,987.30
2015,12,10,03,28,987.40
2015,12,10,03,29,987.44
2015,12,10,03,30,987.47
2015,12,10,03,31,987.44
2015,12,10,03,32,987.34
2015,12,10,03,33,987.37
2015,12,10,03,34,987.43
2015,12,10,03,35,987.38
2015,12,10,03,36,987.31
2015,12,10,03,37,987.30
2015,12,10,03,38,987.30
2015,12,10,03,39,987.21
2015,12,10,03,40,987.23
2015,12,10,03,41,987.30
2015,12,10,03,42,987.27
2015,12,10,03,43,987.30
2015,12,10,03,44,987.15
2015,12,10,03,45,987.17
2015,12,10,03,46,987.22
2015,12,10,03,47,987.18
2015,12,10,03,48,987.17
2015,12,10,03,49,987.07
2015,12,10,03,50,987.25
2015,12,10,03,51,987.18
2015,12,10,03,52,987.07
2015,12,10,03,53,987.10
2015,12,10,03,54,987.06
2015,12,10,03,55,987.10
2015,12,10,03,56,987.04
2015,12,10,03,57,986.97
2015,12,10,03,58,986.93
2015,12,10,03,59,986.93
2015,12,10,04,00,986.86
2015,12,10,04,01,986.83
2015,12,10,04,02,986.86
2015,12,10,04,03,986.90
2015,12,10,04,04,986.86
2015,12,10,04,05,986.86
2015,12,10,04,06,986.83
2015,12,10,04,07,986.77
2015,12,10,04,08,986.67
2015,12,10,04,09,986.72
2015,12,10,04,10,986.76
2015,12,10,04,11,986.76
2015,12,10,04,12,986.66
2015,12,10,04,13,986.69
2015,12,10,04,14,986.59
2015,12,10,04,15,986.66
2015,12,10,04,16,986.66
2015,12,10,04,17,986.62
2015,12,10,04,18,986.52
2015,12,10,04,19,986.59
2015,12,10,04,20,986.56
2015,12,10,04,21,986.52
2015,12,10,04,22,986.52
2015,12,10,04,23,986.56
2015,12,10,04,24,986.52
2015,12,10,04,25,986.42
2015,12,10,04,26,986.42
2015,12,10,04,27,986.42
2015,12,10,04,28,986.52
2015,12,10,04,29,986.32
2015,12,10,04,30,986.29
2015,12,10,04,31,986.35
2015,12,10,04,32,986.32
2015,12,10,04,33,986.41
2015,12,10,04,34,986.35
2015,12,10,04,35,986.39
2015,12,10,04,36,986.39
2015,12,10,04,37,986.32
2015,12,10,04,38,986.32
2015,12,10,04,39,986.31
2015,12,10,04,40,986.18
2015,12,10,04,41,986.29
2015,12,10,04,42,986.29
2015,12,10,04,43,986.22
2015,12,10,04,44,986.39
2015,12,10,04,45,986.42
2015,12,10,04,46,986.52
2015,12,10,04,47,986.42
2015,12,10,04,48,986.49
2015,12,10,04,49,986.56
2015,12,10,04,50,986.59
2015,12,10,04,51,986.56
2015,12,10,04,52,986.62
2015,12,10,04,53,986.56
2015,12,10,04,54,986.56
2015,12,10,04,55,986.52
2015,12,10,04,56,986.39
2015,12,10,04,57,986.39
2015,12,10,04,58,986.35
2015,12,10,04,59,986.32
2015,12,10,05,00,986.32
2015,12,10,05,01,986.29
2015,12,10,05,02,986.42
2015,12,10,05,03,986.35
2015,12,10,05,04,986.16
2015,12,10,05,05,986.08
2015,12,10,05,06,986.12
2015,12,10,05,07,986.05
2015,12,10,05,08,986.02
2015,12,10,05,09,985.95
2015,12,10,05,10,985.81
2015,12,10,05,11,985.74
2015,12,10,05,12,985.68
2015,12,10,05,13,985.61
2015,12,10,05,14,985.54
2015,12,10,05,15,985.54
2015,12,10,05,16,985.57
2015,12,10,05,17,985.54
2015,12,10,05,18,985.51
2015,12,10,05,19,985.54
2015,12,10,05,20,985.47
2015,12,10,05,21,985.47
2015,12,10,05,22,985.51
2015,12,10,05,23,985.54
2015,12,10,05,24,985.57
2015,12,10,05,25,985.54
2015,12,10,05,26,985.54
2015,12,10,05,27,985.51
2015,12,10,05,28,985.47
2015,12,10,05,29,985.51
2015,12,10,05,30,985.47
2015,12,10,05,31,985.41
2015,12,10,05,32,985.44
2015,12,10,05,33,985.37
2015,12,10,05,34,985.37
2015,12,10,05,35,985.27
2015,12,10,05,36,985.27
2015,12,10,05,37,985.27
2015,12,10,05,38,985.27
2015,12,10,05,39,985.20
2015,12,10,05,40,985.20
2015,12,10,05,41,985.17
2015,12,10,05,42,985.27
2015,12,10,05,43,985.27
2015,12,10,05,44,985.27
2015,12,10,05,45,985.30
2015,12,10,05,46,985.37
2015,12,10,05,47,985.41
2015,12,10,05,48,985.30
2015,12,10,05,49,985.30
2015,12,10,05,50,985.30
2015,12,10,05,51,985.30
2015,12,10,05,52,985.34
2015,12,10,05,53,985.34
2015,12,10,05,54,985.24
2015,12,10,05,55,985.20
2015,12,10,05,56,985.20
2015,12,10,05,57,985.24
2015,12,10,05,58,985.17
2015,12,10,05,59,985.17
2015,12,10,06,00,985.13
2015,12,10,06,01,985.17
2015,12,10,06,02,985.13
2015,12,10,06,03,985.10
2015,12,10,06,04,985.17
2015,12,10,06,05,985.10
2015,12,10,06,06,985.00
2015,12,10,06,07,984.97
2015,12,10,06,08,984.93
2015,12,10,06,09,984.97
2015,12,10,06,10,984.97
2015,12,10,06,11,984.90
2015,12,10,06,12,984.85
2015,12,10,06,13,984.73
2015,12,10,06,14,984.69
2015,12,10,06,15,984.73
2015,12,10,06,16,984.63
2015,12,10,06,17,984.59
2015,12,10,06,18,984.59
2015,12,10,06,19,984.59
2015,12,10,06,20,984.56
2015,12,10,06,21,984.56
2015,12,10,06,22,984.49
2015,12,10,06,23,984.56
2015,12,10,06,24,984.63
2015,12,10,06,25,984.43
2015,12,10,06,26,984.56
2015,12,10,06,27,984.49
2015,12,10,06,28,984.49
2015,12,10,06,29,984.42
2015,12,10,06,30,984.46
2015,12,10,06,31,984.41
2015,12,10,06,32,984.32
2015,12,10,06,33,984.32
2015,12,10,06,34,984.32
2015,12,10,06,35,984.22
2015,12,10,06,36,984.25
2015,12,10,06,37,984.08
2015,12,10,06,38,984.05
2015,12,10,06,39,984.05
2015,12,10,06,40,984.08
2015,12,10,06,41,984.08
2015,12,10,06,42,984.05
2015,12,10,06,43,983.98
2015,12,10,06,44,983.92
2015,12,10,06,45,983.85
2015,12,10,06,46,983.81
2015,12,10,06,47,983.81
2015,12,10,06,48,983.78
2015,12,10,06,49,983.64
2015,12,10,06,50,983.51
2015,12,10,06,51,983.54
2015,12,10,06,52,983.51
2015,12,10,06,53,983.37
2015,12,10,06,54,983.41
2015,12,10,06,55,983.41
2015,12,10,06,56,983.31
2015,12,10,06,57,983.31
2015,12,10,06,58,983.24
2015,12,10,06,59,983.27
2015,12,10,07,00,983.27
2015,12,10,07,01,983.31
2015,12,10,07,02,983.27
2015,12,10,07,03,983.15
2015,12,10,07,04,983.20
2015,12,10,07,05,983.17
2015,12,10,07,06,983.20
2015,12,10,07,07,983.14
2015,12,10,07,08,983.00
2015,12,10,07,09,983.13
2015,12,10,07,10,983.01
2015,12,10,07,11,983.07
2015,12,10,07,12,983.07
2015,12,10,07,13,982.97
2015,12,10,07,14,983.07
2015,12,10,07,15,983.07
2015,12,10,07,16,982.93
2015,12,10,07,17,982.90
2015,12,10,07,18,982.83
2015,12,10,07,19,982.90
2015,12,10,07,20,982.90
2015,12,10,07,21,982.93
2015,12,10,07,22,982.93
2015,12,10,07,23,982.87
2015,12,10,07,24,982.90
2015,12,10,07,25,982.87
2015,12,10,07,26,982.70
2015,12,10,07,27,982.73
2015,12,10,07,28,982.66
2015,12,10,07,29,982.73
2015,12,10,07,30,982.76
2015,12,10,07,31,982.76
2015,12,10,07,32,982.76
2015,12,10,07,33,982.80
2015,12,10,07,34,982.83
2015,12,10,07,35,982.76
2015,12,10,07,36,982.73
2015,12,10,07,37,982.59
2015,12,10,07,38,982.59
2015,12,10,07,39,982.56
2015,12,10,07,40,982.39
2015,12,10,07,41,982.39
2015,12,10,07,42,982.39
2015,12,10,07,43,982.43
2015,12,10,07,44,982.32
2015,12,10,07,45,982.36
2015,12,10,07,46,982.26
2015,12,10,07,47,982.36
2015,12,10,07,48,982.29
2015,12,10,07,49,982.15
2015,12,10,07,50,982.15
2015,12,10,07,51,982.19
2015,12,10,07,52,982.09
2015,12,10,07,53,982.15
2015,12,10,07,54,982.12
2015,12,10,07,55,982.05
2015,12,10,07,56,982.05
2015,12,10,07,57,981.96
2015,12,10,07,58,981.99
2015,12,10,07,59,981.95
2015,12,10,08,00,981.88
2015,12,10,08,01,981.88
2015,12,10,08,02,981.88
2015,12,10,08,03,981.82
2015,12,10,08,04,981.82
2015,12,10,08,05,981.92
2015,12,10,08,06,981.79
2015,12,10,08,07,981.61
2015,12,10,08,08,981.61
2015,12,10,08,09,981.61
2015,12,10,08,10,981.58
2015,12,10,08,11,981.48
2015,12,10,08,12,981.48
2015,12,10,08,13,981.51
2015,12,10,08,14,981.55
2015,12,10,08,15,981.58
2015,12,10,08,16,981.45
2015,12,10,08,17,981.48
2015,12,10,08,18,981.34
2015,12,10,08,19,981.48
2015,12,10,08,20,981.34
2015,12,10,08,21,981.41
2015,12,10,08,22,981.27
2015,12,10,08,23,981.38
2015,12,10,08,24,981.31
2015,12,10,08,25,981.24
2015,12,10,08,26,981.31
2015,12,10,08,27,981.21
2015,12,10,08,28,981.21
2015,12,10,08,29,981.17
2015,12,10,08,30,981.10
2015,12,10,08,31,981.21
2015,12,10,08,32,981.24
2015,12,10,08,33,981.31
2015,12,10,08,34,981.21
2015,12,10,08,35,981.14
2015,12,10,08,36,981.07
2015,12,10,08,37,980.97
2015,12,10,08,38,981.04
2015,12,10,08,39,980.94
2015,12,10,08,40,980.83
2015,12,10,08,41,980.90
2015,12,10,08,42,980.77
2015,12,10,08,43,980.66
2015,12,10,08,44,980.82
2015,12,10,08,45,980.73
2015,12,10,08,46,980.77
2015,12,10,08,47,980.77
2015,12,10,08,48,980.90
2015,12,10,08,49,980.90
2015,12,10,08,50,980.94
2015,12,10,08,51,980.94
2015,12,10,08,52,980.87
2015,12,10,08,53,980.83
2015,12,10,08,54,980.83
2015,12,10,08,55,980.77
2015,12,10,08,56,980.70
2015,12,10,08,57,980.60
2015,12,10,08,58,980.56
2015,12,10,08,59,980.53
2015,12,10,09,00,980.56
2015,12,10,09,01,980.53
2015,12,10,09,02,980.56
2015,12,10,09,03,980.63
2015,12,10,09,04,980.66
2015,12,10,09,05,980.60
2015,12,10,09,06,980.70
2015,12,10,09,07,980.73
2015,12,10,09,08,980.63
2015,12,10,09,09,980.77
2015,12,10,09,10,980.70
2015,12,10,09,11,980.73
2015,12,10,09,12,980.73
2015,12,10,09,13,980.73
2015,12,10,09,14,980.80
2015,12,10,09,15,980.80
2015,12,10,09,16,980.73
2015,12,10,09,17,980.73
2015,12,10,09,18,980.73
2015,12,10,09,19,980.77
2015,12,10,09,20,980.83
2015,12,10,09,21,980.80
2015,12,10,09,22,980.73
2015,12,10,09,23,980.70
2015,12,10,09,24,980.77
2015,12,10,09,25,980.77
2015,12,10,09,26,980.77
2015,12,10,09,27,980.77
2015,12,10,09,28,980.70
2015,12,10,09,29,980.63
2015,12,10,09,30,980.60
2015,12,10,09,31,980.60
2015,12,10,09,32,980.60
2015,12,10,09,33,980.50
2015,12,10,09,34,980.46
2015,12,10,09,35,980.46
2015,12,10,09,36,980.50
2015,12,10,09,37,980.46
2015,12,10,09,38,980.46
2015,12,10,09,39,980.60
2015,12,10,09,40,980.63
2015,12,10,09,41,980.56
2015,12,10,09,42,980.50
2015,12,10,09,43,980.56
2015,12,10,09,44,980.56
2015,12,10,09,45,980.66
2015,12,10,09,46,980.60
2015,12,10,09,47,980.66
2015,12,10,09,48,980.63
2015,12,10,09,49,980.53
2015,12,10,09,50,980.50
2015,12,10,09,51,980.50
2015,12,10,09,52,980.36
2015,12,10,09,53,980.33
2015,12,10,09,54,980.26
2015,12,10,09,55,980.33
2015,12,10,09,56,980.19
2015,12,10,09,57,980.19
2015,12,10,09,58,980.22
2015,12,10,09,59,980.22
2015,12,10,10,00,980.19
2015,12,10,10,01,980.16
2015,12,10,10,02,980.09
2015,12,10,10,03,980.16
2015,12,10,10,04,980.12
2015,12,10,10,05,980.19
2015,12,10,10,06,980.16
2015,12,10,10,07,980.06
2015,12,10,10,08,980.02
2015,12,10,10,09,980.19
2015,12,10,10,10,980.12
2015,12,10,10,11,980.16
2015,12,10,10,12,980.22
2015,12,10,10,13,980.16
2015,12,10,10,14,980.16
2015,12,10,10,15,980.16
2015,12,10,10,16,980.16
2015,12,10,10,17,980.26
2015,12,10,10,18,980.36
2015,12,10,10,19,980.27
2015,12,10,10,20,980.12
2015,12,10,10,21,980.16
2015,12,10,10,22,980.12
2015,12,10,10,23,980.03
2015,12,10,10,24,980.12
2015,12,10,10,25,980.06
2015,12,10,10,26,980.18
2015,12,10,10,27,980.22
2015,12,10,10,28,980.10
2015,12,10,10,29,980.12
2015,12,10,10,30,980.16
2015,12,10,10,31,980.12
2015,12,10,10,32,980.12
2015,12,10,10,33,980.09
2015,12,10,10,34,980.09
2015,12,10,10,35,980.16
2015,12,10,10,36,980.16
2015,12,10,10,37,980.12
2015,12,10,10,38,980.16
2015,12,10,10,39,980.12
2015,12,10,10,40,980.09
2015,12,10,10,41,980.12
2015,12,10,10,42,980.09
2015,12,10,10,43,980.18
2015,12,10,10,44,980.19
2015,12,10,10,45,980.26
2015,12,10,10,46,980.33
2015,12,10,10,47,980.36
2015,12,10,10,48,980.33
2015,12,10,10,49,980.33
2015,12,10,10,50,980.36
2015,12,10,10,51,980.36
2015,12,10,10,52,980.39
2015,12,10,10,53,980.36
2015,12,10,10,54,980.29
2015,12,10,10,55,980.29
2015,12,10,10,56,980.26
2015,12,10,10,57,980.26
2015,12,10,10,58,980.19
2015,12,10,10,59,980.16
2015,12,10,11,00,980.19
2015,12,10,11,01,980.22
2015,12,10,11,02,980.29
2015,12,10,11,03,980.29
2015,12,10,11,04,980.33
2015,12,10,11,05,980.29
2015,12,10,11,06,980.26
2015,12,10,11,07,980.09
2015,12,10,11,08,980.02
2015,12,10,11,09,979.99
2015,12,10,11,10,980.09
2015,12,10,11,11,980.06
2015,12,10,11,12,980.09
2015,12,10,11,13,980.09
2015,12,10,11,14,980.12
2015,12,10,11,15,980.12
2015,12,10,11,16,980.26
2015,12,10,11,17,980.29
2015,12,10,11,18,980.20
2015,12,10,11,19,980.22
2015,12,10,11,20,980.16
2015,12,10,11,21,980.16
2015,12,10,11,22,980.26
2015,12,10,11,23,980.26
2015,12,10,11,24,980.26
2015,12,10,11,25,980.22
2015,12,10,11,26,980.26
2015,12,10,11,27,980.26
2015,12,10,11,28,980.29
2015,12,10,11,29,980.36
2015,12,10,11,30,980.36
2015,12,10,11,31,980.46
2015,12,10,11,32,980.39
2015,12,10,11,33,980.43
2015,12,10,11,34,980.46
2015,12,10,11,35,980.46
2015,12,10,11,36,980.50
2015,12,10,11,37,980.60
2015,12,10,11,38,980.66
2015,12,10,11,39,980.70
2015,12,10,11,40,980.66
2015,12,10,11,41,980.73
2015,12,10,11,42,980.66
2015,12,10,11,43,980.63
2015,12,10,11,44,980.60
2015,12,10,11,45,980.53
2015,12,10,11,46,980.56
2015,12,10,11,47,980.60
2015,12,10,11,48,980.60
2015,12,10,11,49,980.60
2015,12,10,11,50,980.56
2015,12,10,11,51,980.63
2015,12,10,11,52,980.53
2015,12,10,11,53,980.70
2015,12,10,11,54,980.77
2015,12,10,11,55,980.87
2015,12,10,11,56,980.87
2015,12,10,11,57,980.90
2015,12,10,11,58,980.90
2015,12,10,11,59,980.90
2015,12,10,12,00,980.83
2015,12,10,12,01,980.83
2015,12,10,12,02,980.77
2015,12,10,12,03,980.66
2015,12,10,12,04,980.60
2015,12,10,12,05,980.56
2015,12,10,12,06,980.63
2015,12,10,12,07,980.70
2015,12,10,12,08,980.77
2015,12,10,12,09,980.73
2015,12,10,12,10,980.70
2015,12,10,12,11,980.70
2015,12,10,12,12,980.63
2015,12,10,12,13,980.56
2015,12,10,12,14,980.44
2015,12,10,12,15,980.34
2015,12,10,12,16,980.17
2015,12,10,12,17,979.99
2015,12,10,12,18,979.95
2015,12,10,12,19,979.89
2015,12,10,12,20,979.98
2015,12,10,12,21,980.02
2015,12,10,12,22,980.11
2015,12,10,12,23,980.19
2015,12,10,12,24,980.33
2015,12,10,12,25,980.26
2015,12,10,12,26,980.22
2015,12,10,12,27,980.12
2015,12,10,12,28,980.12
2015,12,10,12,29,980.12
2015,12,10,12,30,980.19
2015,12,10,12,31,980.22
2015,12,10,12,32,980.29
2015,12,10,12,33,980.39
2015,12,10,12,34,980.43
2015,12,10,12,35,980.46
2015,12,10,12,36,980.46
2015,12,10,12,37,980.43
2015,12,10,12,38,980.43
2015,12,10,12,39,980.43
2015,12,10,12,40,980.36
2015,12,10,12,41,980.39
2015,12,10,12,42,980.26
2015,12,10,12,43,980.26
2015,12,10,12,44,980.35
2015,12,10,12,45,980.46
2015,12,10,12,46,980.55
2015,12,10,12,47,980.66
2015,12,10,12,48,980.73
2015,12,10,12,49,980.83
2015,12,10,12,50,980.97
2015,12,10,12,51,980.97
2015,12,10,12,52,981.07
2015,12,10,12,53,981.20
2015,12,10,12,54,981.27
2015,12,10,12,55,981.27
2015,12,10,12,56,981.38
2015,12,10,12,57,981.48
2015,12,10,12,58,981.48
2015,12,10,12,59,981.48
2015,12,10,13,00,981.48
2015,12,10,13,01,981.48
2015,12,10,13,02,981.55
2015,12,10,13,03,981.51
2015,12,10,13,04,981.48
2015,12,10,13,05,981.48
2015,12,10,13,06,981.58
2015,12,10,13,07,981.58
2015,12,10,13,08,981.65
2015,12,10,13,09,981.55
2015,12,10,13,10,981.51
2015,12,10,13,11,981.61
2015,12,10,13,12,981.55
2015,12,10,13,13,981.65
2015,12,10,13,14,981.68
2015,12,10,13,15,981.75
2015,12,10,13,16,981.71
2015,12,10,13,17,981.82
2015,12,10,13,18,981.82
2015,12,10,13,19,981.75
2015,12,10,13,20,981.75
2015,12,10,13,21,981.82
2015,12,10,13,22,981.91
2015,12,10,13,23,981.92
2015,12,10,13,24,981.95
2015,12,10,13,25,982.08
2015,12,10,13,26,982.12
2015,12,10,13,27,982.19
2015,12,10,13,28,982.26
2015,12,10,13,29,982.26
2015,12,10,13,30,982.26
2015,12,10,13,31,982.26
2015,12,10,13,32,982.26
2015,12,10,13,33,982.29
2015,12,10,13,34,982.42
2015,12,10,13,35,982.49
2015,12,10,13,36,982.59
2015,12,10,13,37,982.59
2015,12,10,13,38,982.66
2015,12,10,13,39,982.70
2015,12,10,13,40,982.79
2015,12,10,13,41,982.76
2015,12,10,13,42,982.80
2015,12,10,13,43,982.87
2015,12,10,13,44,982.83
2015,12,10,13,45,982.71
2015,12,10,13,46,982.57
2015,12,10,13,47,982.49
2015,12,10,13,48,982.43
2015,12,10,13,49,982.43
2015,12,10,13,50,982.46
2015,12,10,13,51,982.43
2015,12,10,13,52,982.30
2015,12,10,13,53,982.22
2015,12,10,13,54,982.42
2015,12,10,13,55,982.62
2015,12,10,13,56,982.80
2015,12,10,13,57,982.87
2015,12,10,13,58,982.93
2015,12,10,13,59,983.00
2015,12,10,14,00,983.00
2015,12,10,14,01,983.19
2015,12,10,14,02,983.30
2015,12,10,14,03,983.51
2015,12,10,14,04,983.58
2015,12,10,14,05,983.71
2015,12,10,14,06,983.81
2015,12,10,14,07,983.88
2015,12,10,14,08,983.95
2015,12,10,14,09,983.98
2015,12,10,14,10,984.02
2015,12,10,14,11,984.08
2015,12,10,14,12,984.21
2015,12,10,14,13,984.29
2015,12,10,14,14,984.19
2015,12,10,14,15,984.08
2015,12,10,14,16,984.08
2015,12,10,14,17,984.08
2015,12,10,14,18,984.05
2015,12,10,14,19,984.02
2015,12,10,14,20,984.08
2015,12,10,14,21,984.24
2015,12,10,14,22,984.22
2015,12,10,14,23,984.22
2015,12,10,14,24,984.09
2015,12,10,14,25,983.98
2015,12,10,14,26,983.89
2015,12,10,14,27,983.71
2015,12,10,14,28,983.49
2015,12,10,14,29,983.28
2015,12,10,14,30,983.27
2015,12,10,14,31,983.59
2015,12,10,14,32,983.91
2015,12,10,14,33,983.95
2015,12,10,14,34,983.92
2015,12,10,14,35,983.95
2015,12,10,14,36,983.98
2015,12,10,14,37,984.05
2015,12,10,14,38,983.98
2015,12,10,14,39,983.92
2015,12,10,14,40,983.98
2015,12,10,14,41,984.02
2015,12,10,14,42,984.05
2015,12,10,14,43,984.15
2015,12,10,14,44,984.15
2015,12,10,14,45,984.08
2015,12,10,14,46,984.02
2015,12,10,14,47,984.05
2015,12,10,14,48,984.12
2015,12,10,14,49,984.32
2015,12,10,14,50,984.53
2015,12,10,14,51,984.59
2015,12,10,14,52,984.66
2015,12,10,14,53,984.69
2015,12,10,14,54,984.69
2015,12,10,14,55,984.59
2015,12,10,14,56,984.49
2015,12,10,14,57,984.66
2015,12,10,14,58,984.69
2015,12,10,14,59,984.63
2015,12,10,15,00,984.63
2015,12,10,15,01,984.68
2015,12,10,15,02,984.53
2015,12,10,15,03,984.56
2015,12,10,15,04,984.49
2015,12,10,15,05,984.56
2015,12,10,15,06,984.80
2015,12,10,15,07,984.93
2015,12,10,15,08,984.93
2015,12,10,15,09,985.06
2015,12,10,15,10,985.16
2015,12,10,15,11,985.17
2015,12,10,15,12,985.24
2015,12,10,15,13,985.20
2015,12,10,15,14,985.41
2015,12,10,15,15,985.47
2015,12,10,15,16,985.54
2015,12,10,15,17,985.57
2015,12,10,15,18,985.54
2015,12,10,15,19,985.61
2015,12,10,15,20,985.61
2015,12,10,15,21,985.54
2015,12,10,15,22,985.47
2015,12,10,15,23,985.47
2015,12,10,15,24,985.44
2015,12,10,15,25,985.44
2015,12,10,15,26,985.44
2015,12,10,15,27,985.47
2015,12,10,15,28,985.47
2015,12,10,15,29,985.44
2015,12,10,15,30,985.41
2015,12,10,15,31,985.44
2015,12,10,15,32,985.44
2015,12,10,15,33,985.56
2015,12,10,15,34,985.74
2015,12,10,15,35,985.87
2015,12,10,15,36,985.97
2015,12,10,15,37,985.98
2015,12,10,15,38,986.07
2015,12,10,15,39,986.17
2015,12,10,15,40,986.25
2015,12,10,15,41,986.42
2015,12,10,15,42,986.52
2015,12,10,15,43,986.61
2015,12,10,15,44,986.73
2015,12,10,15,45,986.73
2015,12,10,15,46,986.73
2015,12,10,15,47,986.83
2015,12,10,15,48,986.92
2015,12,10,15,49,986.84
2015,12,10,15,50,986.79
2015,12,10,15,51,986.83
2015,12,10,15,52,986.86
2015,12,10,15,53,986.99
2015,12,10,15,54,987.03
2015,12,10,15,55,987.13
2015,12,10,15,56,987.22
2015,12,10,15,57,987.30
2015,12,10,15,58,987.30
2015,12,10,15,59,987.43
2015,12,10,16,00,987.53
2015,12,10,16,01,987.38
2015,12,10,16,02,987.47
2015,12,10,16,03,987.35
2015,12,10,16,04,987.34
2015,12,10,16,05,987.20
2015,12,10,16,06,987.10
2015,12,10,16,07,987.03
2015,12,10,16,08,987.00
2015,12,10,16,09,987.12
2015,12,10,16,10,987.26
2015,12,10,16,11,987.23
2015,12,10,16,12,987.20
2015,12,10,16,13,987.36
2015,12,10,16,14,987.40
2015,12,10,16,15,987.44
2015,12,10,16,16,987.44
2015,12,10,16,17,987.44
2015,12,10,16,18,987.57
2015,12,10,16,19,987.64
2015,12,10,16,20,987.64
2015,12,10,16,21,987.61
2015,12,10,16,22,987.71
2015,12,10,16,23,987.74
2015,12,10,16,24,987.87
2015,12,10,16,25,987.91
2015,12,10,16,26,987.95
2015,12,10,16,27,987.95
2015,12,10,16,28,987.98
2015,12,10,16,29,988.05
2015,12,10,16,30,988.11
2015,12,10,16,31,988.08
2015,12,10,16,32,988.05
2015,12,10,16,33,988.08
2015,12,10,16,34,988.08
2015,12,10,16,35,988.11
2015,12,10,16,36,988.11